[Iaude] MPEC D15: 2024 CW7 [a=2.19,e=0.66,i=4.0,H=23.9]
    mpec at cfa.harvard.edu 
    mpec at cfa.harvard.edu
       
    Fri Feb 16 16:37:47 EST 2024
    
    
  
M.P.E.C. 2024-D15                             Issued 2024 February 16, 21:36 UT
     The Minor Planet Electronic Circulars contain information on unusual
         minor planets, routine data on comets and natural satellites,
         and occasional editorial announcements.  They are published
    on behalf of Division F of the International Astronomical Union by the
          Minor Planet Center, Smithsonian Astrophysical Observatory,
                          Cambridge, MA 02138, U.S.A.
			  
             Prepared using the Tamkin Foundation Computer Network
                              MPC at CFA.HARVARD.EDU
            URL https://www.minorplanetcenter.net/    ISSN 1523-6714
                                    2024 CW7                                    
Observations:
     K24C07W* C2024 02 15.33925308 24 58.305-13 00 04.27         20.92wXED015F52
     K24C07W  C2024 02 15.35745908 24 51.933-13 01 37.86         20.98wXED015F52
     K24C07W  C2024 02 15.36658608 24 48.726-13 02 24.56         20.98wXED015F52
     K24C07W  C2024 02 15.42393008 24 28.558-13 07 18.98         20.55GVED015F52
     K24C07W  C2024 02 15.42457708 24 28.311-13 07 22.56         20.67GVED015F52
     K24C07W KC2024 02 16.21212208 19 59.130-14 18 44.10               VED015I52
     K24C07W KC2024 02 16.21791608 19 56.890-14 19 16.80         20.82GVED015I52
     K24C07W KC2024 02 16.22082608 19 55.800-14 19 33.30         20.25GVED015I52
     K24C07W KC2024 02 16.22373808 19 54.670-14 19 50.00         20.38GVED015I52
     K24C07W KC2024 02 16.86103208 15 50.85 -15 23 05.4          20.5 GVED015L01
     K24C07W KC2024 02 16.86325608 15 49.89 -15 23 18.5          20.6 GVED015L01
     K24C07W IC2024 02 16.86547908 15 48.94 -15 23 32.5          20.7 GVED015L01
Observer details:
F52 Pan-STARRS 2, Haleakala.  Observers J. Herman, T. Lowe, P. Minguez, A.
    Schultz, I. Smith.  Measurers K. Chambers, T. de Boer, J. Fairlamb, H.
    Gao, M. Huber, C.-C. Lin, E. Magnier, Y. Ramanjooloo, R. Wainscoat, R.
    Weryk.  1.8-m Ritchey-Chretien + CCD.
I52 Steward Observatory, Mt. Lemmon Station.  Observer J. B. Fazekas.
    Measurers E. C. Beshore, D. Fay, J. B. Fazekas, D. C. Fuls, A. R. Gibbs,
    A. D. Grauer, H. Groeller, J. K. Hogan, R. A. Kowalski, S. M. Larson, G.
    J. Leonard, D. Rankin, R. L. Seaman, F. C. Shelly, K. W. Wierzchos.  1.0-m
    prime focus + CCD.
L01 Visnjan Observatory, Tican.  Observer K. Korlevic.  1.0-m f/2.9 reflector
    + CCD.
Orbital elements:
2024 CW7                                                 Earth MOID = 0.0512 AU
Epoch 2024 Mar. 31.0 TT = JDT 2460400.5                 MPC                     
M 357.52671              (2000.0)            P               Q                  
n   0.30461571     Peri.   19.12518     -0.73909574     +0.67302359             
a   2.1875997      Node   203.24782     -0.62685381     -0.70235943             
e   0.6561328      Incl.    4.04896     -0.24655991     -0.23179838             
P   3.24           H   23.91          G   0.15           U   9                  
Residuals in seconds of arc
240215 F52  0.4-  0.0     240215 F52  0.3-  0.1+    240216 I52  0.7+  0.0
240215 F52  0.5-  0.1-    240216 I52  0.5-  0.5-    240216 L01  0.0   0.3-
240215 F52  0.6-  0.1+    240216 I52  0.1-  0.1-    240216 L01  0.2-  0.5+
240215 F52  0.0   0.3+    240216 I52  0.6+  0.1+    240216 L01  0.3-  0.3+
Ephemeris:
2024 CW7                 a,e,i = 2.19, 0.66, 4                   q = 0.7522
Date    TT    R. A. (2000) Decl.     Delta      r    Elong.  Phase     V
2024 01 17    09 13 45.8 +02 46 32   0.4406  1.3910   153.1    18.7    23.8
...
2024 02 01    09 03 26.0 -01 59 45   0.2668  1.2399   160.5    15.4    22.4
...
2024 02 09    08 48 40.0 -06 29 30   0.1858  1.1592   156.5    19.9    21.6
...
2024 02 15    08 26 44.1 -12 31 05   0.1305  1.0993   147.0    29.3    21.0
2024 02 16    08 21 14.5 -13 57 56   0.1218  1.0894   144.7    31.6    20.9
2024 02 17    08 14 53.9 -15 36 21   0.1133  1.0796   142.0    34.3    20.8
...
2024 02 23    06 59 30.7 -31 53 17   0.06936 1.0214   115.9    60.6    20.3
...
2024 03 02    00 57 23.7 -43 40 48   0.06375 0.9476    45.6   131.6    23.7
...
2024 03 17    22 20 52.5 -17 09 47   0.1892  0.8300    26.5   147.7    27.9
A. U. Tomatic                (C) Copyright 2024 MPC           M.P.E.C. 2024-D15
    
    
More information about the Iaude
mailing list